Location: Condor
(52.3263°N, 114.5541°W)
Time: 21:58:55
(UTC+00:00)

Oscar 19 - Pass Details

Date: 15 December 2023
Orbit: 771 x 789 km, 98.9° (Epoch: 04 March)

Event Time Altitude Azimuth Distance (km) Brightness Sun altitude
Rises 13:13:03 0° 13° (NNE) 3,282 13.9 -21.2°
Reaches altitude 10° 13:15:24 10° 9° (N) 2,353 13.1 -20.9°
Maximum altitude 13:20:26 54° 293° (WNW) 958 10.7 -20.1°
Drops below altitude 10° 13:25:28 10° 217° (SW) 2,347 12.9 -19.4°
Sets 13:27:49 0° 213° (SSW) 3,273 13.7 -19.0°
